Precipitable_Water
1.04 1.06 1.10 1.18 1.19 1.12 1.10 1.11 1.27 1.29 1.26 1.25 1.21 1.16 1.12 1.08 1.03 1.00 0.99 0.85 0.82 0.83
1.03 1.14 1.19 1.24 1.18 1.09 1.09 1.21 1.28 1.24 1.19 1.17 1.16 1.14 1.06 0.99 0.97 0.99 0.91 0.80 0.80 0.77
1.19 1.13 1.20 1.21 1.16 1.11 1.15 1.27 1.17 1.09 1.09 1.06 1.01 0.96 0.95 0.93 0.94 0.88 0.81 0.81 0.77 0.78
1.28 1.25 1.26 1.21 1.20 1.14 1.20 1.15 1.03 1.02 0.99 0.93 0.88 0.89 0.88 0.89 0.82 0.75 0.76 0.79 0.74 0.77
1.28 1.26 1.18 1.17 1.20 1.21 1.14 1.05 1.01 0.98 0.94 0.90 0.89 0.90 0.89 0.82 0.77 0.77 0.72 0.71 0.75 0.74
1.20 1.13 1.11 1.15 1.19 1.13 1.08 1.06 0.99 0.92 0.90 0.88 0.87 0.86 0.84 0.83 0.79 0.72 0.70 0.77 0.74 0.72
1.09 1.11 1.08 1.07 1.07 1.06 1.05 0.99 0.94 0.91 0.89 0.86 0.83 0.79 0.83 0.75 0.72 0.70 0.72 0.74 0.70 0.70
1.06 1.07 1.07 1.04 1.02 1.00 0.95 0.93 0.92 0.86 0.80 0.78 0.78 0.80 0.74 0.70 0.70 0.68 0.68 0.67 0.67 0.63
1.00 1.00 0.99 0.94 0.91 0.90 0.85 0.76 0.71 0.70 0.71 0.70 0.68 0.70 0.70 0.69 0.68 0.67 0.64 0.58 0.55 0.51
0.92 0.88 0.86 0.82 0.72 0.67 0.63 0.64 0.64 0.64 0.64 0.64 0.65 0.67 0.66 0.64 0.61 0.57 0.53 0.47 0.42 0.38
0.77 0.70 0.65 0.62 0.60 0.59 0.60 0.58 0.57 0.59 0.61 0.63 0.64 0.62 0.59 0.55 0.49 0.43 0.38 0.37 0.36 0.34
0.64 0.60 0.58 0.55 0.55 0.56 0.56 0.57 0.59 0.61 0.59 0.56 0.53 0.51 0.46 0.43 0.39 0.35 0.34 0.34 0.32 0.31
0.58 0.53 0.52 0.54 0.56 0.58 0.59 0.57 0.54 0.51 0.50 0.45 0.42 0.44 0.40 0.38 0.37 0.33 0.31 0.30 0.28 0.27
0.54 0.55 0.57 0.57 0.55 0.53 0.50 0.49 0.45 0.41 0.41 0.41 0.41 0.39 0.37 0.36 0.32 0.27 0.24 0.22 0.21 0.21
Wind_Speed
19 17 19 21 20 19 18 15 19 21 22 24 25 25 25 26 26 27 29 31 33 33
20 19 21 21 21 21 21 20 20 21 22 23 24 24 25 26 28 29 30 32 33 36
26 22 21 21 21 22 22 21 22 22 23 24 24 25 26 27 28 28 31 32 35 36
27 25 24 23 22 23 22 22 22 23 25 25 25 26 27 27 29 30 31 34 36 38
25 25 24 24 23 22 21 22 23 25 25 25 26 27 28 29 31 30 33 34 38 38
20 21 21 21 21 22 23 23 24 25 25 26 27 27 29 29 30 33 35 37 39 40
18 19 19 20 21 22 23 24 25 26 26 27 27 30 28 31 33 36 37 38 39 42
17 18 19 20 22 23 24 24 25 25 26 27 28 29 31 33 35 36 38 38 40 42
17 18 20 21 21 21 22 23 24 24 26 27 29 30 32 33 35 35 36 39 41 42
19 19 19 20 20 21 22 22 23 25 26 28 29 30 31 32 33 36 38 39 40 42
18 19 20 20 21 21 22 23 25 26 27 28 28 29 30 32 34 36 37 39 41 43
19 19 20 20 20 22 23 24 25 26 27 28 29 30 31 33 35 36 38 41 43 45
19 19 19 20 21 23 25 26 26 26 27 27 29 29 31 33 36 38 40 43 46 49
19 20 21 22 24 24 25 25 26 26 28 29 30 31 33 35 37 40 43 45 48 50
Wind_Direction
257 268 258 258 267 274 277 265 260 266 270 272 273 275 275 277 280 279 282 284 291 292
259 265 263 263 267 274 274 273 275 277 278 276 276 275 277 280 282 282 282 287 292 294
253 265 268 263 269 273 274 274 278 278 280 280 279 278 278 282 285 284 286 288 295 294
255 259 266 264 267 274 272 274 276 280 281 280 280 280 282 282 287 287 290 292 297 297
257 260 262 264 267 272 272 275 278 282 281 282 282 284 284 284 288 288 294 294 299 297
258 258 263 265 267 272 276 279 282 282 282 284 285 286 287 286 286 293 296 296 299 300
259 259 265 267 271 275 278 281 283 285 285 285 287 290 287 290 289 295 297 298 299 301
256 261 266 270 276 278 280 283 284 285 286 287 289 290 291 292 293 295 297 298 300 302
263 265 269 274 276 279 281 284 285 287 289 290 291 292 293 294 296 297 298 300 302 303
265 269 273 276 279 283 284 285 288 290 291 292 293 293 294 296 298 299 301 302 303 304
264 269 273 277 281 283 285 288 290 292 293 295 295 295 296 298 300 302 303 303 305 306
266 270 274 277 279 283 286 289 292 293 294 295 296 296 299 300 302 303 304 305 306 307
268 271 275 278 282 286 288 290 292 293 295 296 299 301 302 303 304 305 306 307 308 309
270 273 277 281 284 286 289 290 293 294 296 297 298 301 304 305 306 307 308 309 310 311